sat.trackr.live / text

‹ back to catalog

MUSAT-2

NORAD 59099 · 2024-043B

PAYLOAD ACTIVE UNKNOWN

§ Identity

Operator
Country
US
Launch date
2024-03-04
Launch site
AFWTR
Launch vehicle
Mass (kg)
RCS (m²)

External: N2YO · Heavens-Above · Gunter

§ Orbital elements

Epoch: 2026-09-22T04:39:20.297952Z

Period
95.39 min
Inclination
97.8734°
Eccentricity
0.0007163
Mean motion
15.09616579 rev/d
Perigee alt
532.4 km
Apogee alt
542.3 km
Semi-major
6,915.5 km
B*
2.6581e-4
RAAN
46.2665°
Arg perigee
15.5822°
Mean anomaly
344.5625°
Rev number
13,972

§ Raw data

MUSAT-21 59099U 24043B   26265.19398493  .00004208  00000+0  26581-3 0  99902 59099  97.8734  46.2665 0007163  15.5822 344.5625 15.09616579139721

JSON: /api/v1/satellites/59099 · /tle

For live sub-satellite position, see the globe view (requires WebGL).

§ Visibility from observer

Set your observer location to see the next 7 days of passes ≥ 10°. The values pass through the URL so the page stays shareable.

No JS? Fill the form by hand. The geolocation button needs JavaScript.

§ Radio — SatNOGS DB

ModeDescriptionDownlinkUplink
OQPSK Mode X - Backup Downlink - 0.5 Mbit/s 8.390 GHz
FM Mode X - EESS Downlink 8.205 GHz
OQPSK Mode X - Primary Downlink - 0.5 Mbit/s 8.385 GHz

3 transmitters · refreshed weekly from db.satnogs.org